Starlink 11533

operational
NORAD ID: 62836 Int'l Des: 2025-019 Owner: SPXS Country: US Constellation: starlink
LEOCIRCULAR

About Starlink 11533

Description loading...

Live Position

Loading 3D Globe...

Upcoming Passes

Altitude History

Altitude vs Time

uPlot chart will show altitude changes over time

Two-Line Element Set

1 62836U 25019H 25257.46144199 .00294887 00000-0 22164-2 0 9996
2 62836 43.0001 288.3147 0001661 300.3241 59.7463 15.70889820 36163
Epoch: Sep 14, 2025 • Age: 25 hours

Current Status

Altitude 358.6 km
Velocity 7.70 km/s
Sub-Earth Point 43.08°N, 164.69°W
Launch Date Jan 27, 2025
Age 0.6 years
Type internet

Technical Details

Classification Payload
Mass 960.00 kg
Dry Mass 910.00 kg
Total Mass 960.00 kg
Length 0.30 m
Diameter 4.10 m
Span 29.00 m
Shape Box + pan
Manufacturer SPXS
Bus Type Starlink V2MD
Phase Status In Orbit
Owner/State SPXS/US

Large Constellations

Loading constellations...